{"data":{"norad_id":55813,"intl_designator":"2023-029T","name":"ONEWEB-0650","alt_names":[],"object_type":"PAYLOAD","status":"ACTIVE","operator":null,"country":"UK","launch_date":"2023-03-09","launch_site_code":"AFETR","launch_vehicle":null,"mission":null,"orbit_class":"UNKNOWN","rcs_meters":null,"size_class":null,"mass_kg":null,"dimensions":null,"purposes":["comms"],"wikipedia_slug":null,"has_3d_model":false,"image_url":null,"decayed_at":null,"tle_current":{"epoch":"2026-05-25T04:20:43.037088Z","epoch_age_seconds":52721,"freshness":"FRESH","line1":"1 55813U 23029T   26145.18105367  .00000057  00000+0  10926-3 0  9999","line2":"2 55813  87.9149 309.5626 0001357  89.7444 270.3844 13.19725732155868","mean_motion":13.19725732,"eccentricity":0.0001357,"inclination_deg":87.9149,"raan_deg":309.5626,"arg_perigee_deg":89.7444,"mean_anomaly_deg":270.3844,"bstar":0.00010926,"rev_number":15586,"period_min":109.11358057842,"perigee_km":1184.7413331874,"apogee_km":1186.7941769379,"semimajor_km":7563.9047550627,"source":"CELESTRAK","updated_at":"2026-05-25T13:38:22.693934Z"}}}